RH
67 61 59 56 51 47 44 43 43 44 48 54 60 67 72 76 77 82 83 83 85 85 86 93 95 95 97
77 74 68 67 66 66 65 63 64 64 66 67 64 59 55 54 55 55 56 57 58 59 65 65 65 64 68
64 60 60 60 60 60 60 60 60 62 66 69 71 76 79 81 83 86 90 90 82 84 91 95 96 97 93
64 62 59 59 57 56 57 58 60 63 65 66 68 70 75 77 80 86 90 93 93 92 92 95 97 96 95
62 59 58 59 60 60 59 57 56 60 62 62 66 68 70 74 79 84 87 89 90 91 94 94 94 93 94
64 62 60 58 57 55 48 49 53 56 53 51 51 51 51 55 59 63 66 69 71 77 80 86 87 84 86
69 66 62 60 59 60 57 53 47 45 46 49 44 44 46 47 45 44 44 41 39 40 42 46 51 61 70
67 66 64 58 54 52 49 51 51 51 48 48 48 46 45 45 44 44 43 40 36 32 30 30 29 29 32
56 57 61 59 58 57 55 52 52 52 49 40 38 37 36 36 35 32 29 27 24 22 20 18 16 15 13
57 58 64 67 64 58 44 40 36 34 31 29 28 26 23 19 17 15 14 14 15 18 18 18 18 18 17
59 57 48 40 36 33 28 25 24 20 17 14 12 12 13 15 24 25 24 24 23 22 22 22 23 23 21
39 33 27 23 22 21 19 17 16 17 18 19 20 21 20 21 21 24 25 26 28 32 34 35 36 35 33
24 23 22 21 20 19 18 19 21 22 21 21 22 23 24 24 24 30 32 37 42 43 45 45 42 36 30
24 23 22 22 22 22 23 23 24 27 27 28 29 28 30 33 33 37 43 47 52 51 47 41 35 32 28
26 26 27 27 27 26 28 30 31 35 42 39 37 43 46 46 47 47 46 48 48 44 40 35 30 26 24
32 32 32 32 34 39 42 46 51 57 60 60 58 52 48 49 47 47 54 51 46 43 38 31 28 33 34
40 46 49 52 56 62 65 66 66 65 65 67 67 62 59 63 66 71 58 51 49 42 38 39 40 39 34
Wind_Speed
59 59 60 61 61 61 62 63 64 65 66 68 69 70 70 70 71 71 72 72 73 73 73 73 73 72 71
61 62 64 65 66 66 67 68 68 68 68 69 70 71 71 71 72 72 72 72 72 72 72 73 74 73 71
65 65 64 63 63 63 63 63 64 65 66 67 68 69 70 71 72 73 73 73 76 75 74 73 73 72 72
61 60 59 58 58 58 59 59 60 61 63 64 65 66 67 68 70 71 71 71 72 72 72 71 71 71 71
58 57 58 58 58 59 59 60 62 62 63 65 65 66 67 68 68 69 71 71 72 72 72 72 73 74 74
55 56 57 58 59 59 62 62 63 62 61 61 61 63 64 66 67 68 69 70 70 71 71 71 73 73 73
54 56 57 57 57 59 60 60 61 63 63 65 66 67 66 67 68 68 70 70 71 71 71 71 73 73 73
54 55 56 57 59 61 62 64 65 67 68 68 70 71 73 75 75 77 78 78 79 79 78 77 78 78 78
56 57 60 63 64 65 66 67 68 71 74 74 75 76 78 80 80 80 81 80 78 77 75 74 72 71 69
60 63 65 67 68 70 73 75 76 76 77 77 78 78 74 69 65 63 62 60 58 57 57 58 58 58 58
66 67 70 73 75 76 76 76 73 68 65 62 58 56 54 51 49 51 52 53 53 55 55 57 58 60 60
69 71 73 71 68 63 59 57 56 54 54 55 53 53 52 49 49 50 52 54 56 58 61 63 64 66 66
66 61 57 55 54 54 54 54 54 54 54 54 52 51 51 50 51 54 58 60 62 63 64 65 65 65 65
52 52 52 52 53 53 53 52 52 53 53 53 53 53 55 58 60 62 64 63 63 63 64 64 64 64 65
50 51 52 52 52 51 51 51 52 53 55 57 58 58 59 60 60 62 62 63 64 66 65 64 63 65 67
50 50 50 50 50 51 52 53 53 54 55 56 57 58 59 60 62 62 63 65 65 64 65 66 65 68 72
49 50 50 51 52 52 53 53 53 54 55 57 58 59 58 58 59 63 64 64 65 65 68 71 72 72 74
Wind_Direction
276 276 277 277 278 277 277 277 277 277 277 277 278 278 278 278 278 278 278 279 279 279 279 278 278 278 276
278 279 279 279 280 280 280 280 280 280 280 280 280 280 280 280 279 279 279 279 279 279 279 278 279 279 278
283 282 282 281 281 281 281 281 281 281 281 281 282 281 281 281 280 280 279 278 278 278 278 278 278 278 278
280 280 281 281 281 281 282 283 283 283 283 284 283 283 282 282 282 281 280 279 280 280 280 280 280 280 279
279 280 281 282 283 283 283 283 282 281 280 279 279 281 282 282 282 282 281 281 280 280 280 279 279 279 278
280 280 280 281 281 281 282 281 281 283 284 283 283 284 284 283 283 282 282 282 282 282 282 281 281 280 280
280 280 280 279 280 280 279 281 283 283 284 286 287 286 286 284 284 285 285 285 284 284 283 282 282 281 280
279 279 279 280 282 283 285 286 286 285 285 286 286 286 286 285 284 284 284 283 283 283 282 282 281 280 279
281 281 282 282 284 286 288 286 285 285 286 286 284 283 282 283 283 283 283 283 284 284 284 284 283 283 283
283 284 285 286 286 287 287 286 285 284 283 283 282 282 283 285 286 285 285 286 286 286 286 286 286 286 286
284 285 286 286 286 285 284 284 284 285 285 285 286 286 287 287 286 286 286 287 287 288 288 289 289 288 287
288 287 286 285 284 284 285 285 286 287 287 287 287 287 287 287 286 286 287 287 288 288 289 289 289 289 289
286 284 284 284 284 286 286 286 286 286 285 285 285 285 285 285 285 286 286 287 288 288 288 290 290 291 290
282 283 284 285 286 286 286 286 285 285 285 285 285 286 286 287 288 287 287 288 287 288 289 290 291 290 290
282 283 284 284 284 284 284 285 285 285 286 287 287 287 288 288 289 290 290 291 291 291 291 291 292 293 293
282 283 283 283 284 284 285 285 286 286 286 287 289 290 292 293 293 292 292 292 292 292 292 292 293 295 296
282 283 284 285 285 285 286 286 287 288 289 290 290 291 292 292 293 295 294 294 294 294 294 295 297 297 297